Theta_e
354 355 357 348 328 322 316 316 325 323 323 329 330 326 325 328 326 318 341 347 350 349 352 354 358 357 356 357 357 358 360 360 359 360 360 361 361 361 360 360 360 358 360 363 363 362 363 363 363
347 353 347 338 320 310 314 322 321 324 327 333 331 328 326 325 335 335 339 347 349 349 350 352 359 356 356 355 358 359 359 358 357 358 360 360 359 360 360 359 358 355 363 362 362 362 362 361 360
347 351 336 329 316 309 315 321 323 326 331 330 328 330 328 329 337 338 344 347 349 351 352 353 356 356 355 355 356 356 356 356 354 355 358 359 358 354 357 360 361 361 362 362 362 361 360 361 361
346 344 338 325 312 317 321 324 326 327 329 332 331 325 333 340 338 342 345 347 347 348 350 354 355 355 356 356 356 356 356 357 358 353 354 358 358 357 361 361 362 361 360 360 359 359 359 359 358
345 338 326 322 321 324 327 328 329 326 326 328 329 323 328 338 344 344 344 346 345 346 349 353 356 356 356 356 356 355 356 357 357 354 353 354 358 359 357 360 360 360 359 359 359 359 358 357 360
331 336 320 313 318 320 330 330 328 325 328 328 326 326 328 341 340 343 345 344 347 346 348 349 355 355 355 355 354 353 356 357 357 353 355 358 358 354 353 357 360 361 360 360 360 359 359 361 360
330 327 318 319 319 323 329 333 326 325 325 326 331 323 330 336 341 344 346 345 347 348 350 353 349 351 355 354 355 354 352 357 357 354 356 357 355 351 355 359 360 361 361 360 358 357 357 360 361
336 328 319 319 318 320 330 332 332 327 325 335 333 323 325 334 343 344 344 345 347 348 347 349 351 347 350 353 354 356 356 353 350 349 346 357 353 355 359 359 362 361 360 359 359 358 358 361 362
337 320 316 319 316 321 332 326 333 331 328 331 333 331 333 337 342 340 341 344 342 344 346 346 347 349 349 349 352 352 354 353 352 352 354 354 356 357 358 360 361 361 360 360 360 359 359 361 365
328 321 322 327 325 326 331 325 328 328 327 329 329 333 335 336 337 336 337 340 340 342 346 347 347 348 349 348 350 350 350 351 350 352 353 356 356 355 358 360 360 360 360 360 362 363 359 348 353
329 325 328 328 330 331 328 330 333 326 323 327 327 329 333 334 334 335 337 338 340 344 348 348 351 352 349 347 346 350 347 345 347 347 350 352 358 356 356 356 355 357 360 356 358 356 355 353 353
327 331 330 329 332 330 326 327 329 328 328 331 331 332 333 332 331 333 335 336 338 342 345 351 349 348 351 348 352 355 354 352 351 351 349 350 353 357 352 352 354 356 356 358 359 355 361 356 358
325 329 330 332 331 329 330 329 328 329 331 333 333 333 332 332 332 334 337 339 340 340 344 349 351 352 350 345 348 356 353 352 353 355 353 355 357 360 359 356 357 355 358 357 348 360 361 361 355
327 330 328 330 330 328 327 327 330 329 333 331 331 331 332 331 333 336 337 339 340 341 343 345 347 357 358 348 351 355 353 351 354 356 361 356 359 356 358 363 359 355 354 356 363 363 363 359 356
331 325 327 325 326 325 326 319 320 327 336 328 330 331 332 333 334 336 338 339 342 341 344 344 350 355 360 360 353 345 352 352 354 356 365 364 366 365 367 362 368 351 355 367 364 364 358 358 355
324 325 317 325 327 328 322 313 323 329 331 329 329 330 332 333 333 336 339 339 341 343 345 346 348 354 357 360 363 354 347 359 359 354 359 365 365 366 368 363 363 364 366 363 359 361 354 356 355
317 311 317 321 329 326 320 315 324 327 330 331 329 330 331 332 335 338 339 341 343 344 347 346 349 350 347 362 348 357 358 355 359 356 357 365 364 365 367 355 365 367 363 354 351 358 357 354 356
307 310 315 318 325 323 319 320 326 325 329 328 331 328 330 331 335 340 339 340 344 345 349 352 350 354 358 357 363 355 358 361 361 361 355 363 364 363 366 367 368 368 361 361 364 363 362 362 358
313 311 313 322 327 323 322 322 325 327 327 330 329 329 328 332 336 340 340 340 344 347 346 351 353 358 354 354 351 352 348 356 358 357 363 364 365 366 368 365 367 368 364 368 366 365 364 355 357
316 311 316 320 323 320 316 320 326 327 327 329 328 331 329 332 337 337 340 342 343 347 350 351 352 360 361 357 361 360 357 355 357 359 361 362 363 368 365 368 367 371 367 370 367 366 362 355 351
311 311 314 315 318 322 319 315 316 324 330 330 331 334 332 332 333 334 338 341 343 346 350 353 357 358 360 363 347 358 350 361 360 355 356 358 362 364 368 370 370 365 352 349 368 368 364 355 359
308 316 316 315 316 310 317 306 313 315 319 327 329 331 333 333 334 336 336 339 339 347 349 355 357 359 359 363 358 363 356 353 354 357 357 357 363 365 363 368 367 358 331 328 347 367 366 365 351
310 316 314 315 314 314 312 308 313 315 315 326 328 330 332 335 335 334 336 338 343 344 348 353 357 358 360 363 366 357 353 350 350 350 359 361 366 366 365 364 365 365 350 335 367 368 365 363 361
315 312 313 313 312 304 311 309 311 316 317 320 328 332 332 332 335 335 335 341 339 338 346 352 354 357 361 361 361 363 351 342 345 356 355 358 358 362 367 363 366 368 369 367 367 366 367 367 365
311 308 304 302 303 302 312 307 313 318 321 323 326 331 334 335 332 336 336 340 338 338 345 352 354 354 358 360 357 357 360 354 362 354 354 354 355 355 362 368 366 363 366 368 368 371 366 366 364
310 309 304 295 299 301 312 305 311 322 326 328 332 333 331 334 334 337 335 340 341 339 347 351 354 354 357 358 360 357 361 359 358 361 361 361 357 355 364 364 365 366 365 365 369 365 363 361 366
310 308 313 306 308 304 305 311 315 319 322 327 330 331 330 330 336 336 337 340 343 342 350 353 355 356 356 356 359 360 360 360 356 364 363 358 352 355 362 364 364 364 363 367 367 362 364 363 358
311 314 305 307 299 299 305 306 308 315 317 321 325 324 332 334 335 336 339 343 343 344 344 355 357 357 356 357 356 356 360 360 362 365 364 354 361 349 354 362 364 366 363 365 368 364 363 365 364
308 307 309 309 307 300 299 304 317 318 318 320 325 324 328 335 336 338 339 345 349 345 346 349 356 357 357 356 354 356 359 358 360 360 364 367 346 337 349 352 360 364 365 365 365 363 363 355 360
312 310 310 304 304 307 306 306 320 320 319 326 327 330 334 336 336 338 339 340 343 351 348 345 345 354 355 357 353 355 354 358 358 358 358 364 348 339 339 358 360 366 365 365 364 361 359 357 356
Wind_Speed
10 12 11 8 2 5 4 7 15 16 14 17 20 17 19 17 14 10 11 17 16 12 14 13 12 10 9 8 9 8 8 8 8 9 8 10 10 10 10 12 12 10 10 11 12 10 11 10 9
12 15 6 6 3 3 6 13 16 14 12 20 17 14 18 22 22 14 16 11 11 13 14 13 10 9 8 8 8 7 7 7 8 8 9 9 10 11 12 12 14 10 10 10 10 10 10 10 9
13 20 4 2 5 6 5 10 14 10 21 8 16 17 15 21 14 10 17 15 10 14 12 11 10 9 7 8 7 7 6 7 6 8 7 9 10 10 10 10 10 11 10 10 10 10 8 7 7
6 5 6 8 12 10 8 11 13 15 14 17 16 13 18 23 15 16 15 15 15 8 14 11 10 9 8 9 8 7 6 7 8 7 6 7 10 8 9 7 10 10 10 9 8 7 5 4 4
3 4 4 4 10 8 6 9 11 16 8 20 21 19 17 25 24 19 16 9 15 15 14 12 13 12 11 9 10 9 6 7 9 9 7 8 10 10 7 6 9 10 8 8 6 5 3 3 4
5 6 4 3 4 12 12 6 12 13 15 20 21 19 15 23 20 18 17 13 13 12 15 14 15 15 16 14 13 13 8 11 11 9 10 12 13 10 2 5 9 10 8 7 5 4 3 5 4
7 3 3 2 7 5 9 10 10 11 16 18 19 19 13 21 18 19 19 17 13 15 15 11 13 14 17 17 15 15 7 17 18 12 11 18 16 8 8 7 9 9 8 6 4 3 3 5 5
5 4 2 3 2 3 6 8 12 11 13 26 10 13 15 17 19 19 18 18 14 13 11 12 11 10 9 7 14 15 17 20 21 14 7 10 15 14 11 7 7 8 7 5 4 6 6 8 13
9 5 3 4 3 4 10 4 5 8 9 7 8 19 21 16 27 19 17 17 11 10 13 12 11 7 8 6 7 12 15 14 17 17 11 8 3 6 9 5 8 7 6 6 9 8 8 10 13
5 6 6 14 13 14 9 8 6 5 11 14 18 23 19 16 21 15 19 17 14 7 16 10 9 8 7 6 2 2 6 2 2 2 4 0 5 6 6 8 8 8 9 11 13 9 5 13 11
5 5 7 8 9 16 5 0 1 12 5 13 20 20 18 15 12 17 19 18 17 13 13 15 10 11 9 6 5 3 4 4 3 6 4 4 6 5 6 4 5 6 11 7 9 8 8 11 13
7 15 9 6 10 9 4 2 10 10 0 6 20 18 16 16 14 14 19 12 14 13 15 18 13 8 10 4 5 7 6 7 6 9 13 7 7 4 5 5 7 7 6 7 3 4 5 4 7
11 14 11 16 10 9 3 6 3 15 5 10 18 17 16 13 12 10 15 17 15 5 15 13 16 13 16 10 6 6 6 5 7 5 7 6 3 1 3 3 4 4 5 8 11 4 1 4 4
9 13 11 14 13 13 8 7 9 15 14 11 18 16 13 11 17 16 11 15 14 8 13 14 11 4 5 13 11 4 6 6 5 4 3 4 4 2 3 4 4 8 7 6 4 2 3 3 3
16 16 14 13 10 8 6 3 9 14 19 11 14 14 12 11 13 17 14 10 15 8 14 12 13 10 4 6 11 3 6 6 4 6 2 4 3 2 4 5 0 17 11 2 2 4 2 1 2
7 6 8 14 12 7 8 4 4 8 10 10 12 12 13 15 14 12 16 11 6 11 12 13 14 16 7 5 1 4 2 2 4 7 5 1 4 5 5 5 3 3 3 3 4 4 1 3 3
7 2 9 15 13 11 4 3 7 9 4 11 8 13 16 14 15 13 14 15 15 10 11 9 11 15 8 5 3 4 6 4 3 5 7 5 4 6 6 4 5 3 4 6 9 1 3 2 5
4 5 11 11 10 12 11 12 7 11 8 9 18 14 16 15 17 16 18 12 17 8 12 6 6 9 6 6 2 1 3 2 3 2 6 6 4 6 6 2 3 4 7 3 2 5 3 2 3
20 18 18 10 14 11 13 12 12 17 15 20 3 11 15 11 7 19 14 17 19 15 11 9 9 7 10 5 3 4 4 3 3 6 5 4 3 4 6 3 0 4 4 5 2 3 5 1 8
18 15 8 6 10 11 11 6 7 17 15 15 18 15 7 2 11 12 3 17 16 14 13 11 13 7 5 4 3 2 2 4 3 6 5 5 4 4 5 4 3 1 3 3 4 5 3 2 9
11 3 8 6 6 7 20 5 7 6 10 15 14 16 6 5 4 14 21 13 17 15 15 11 10 12 7 6 5 5 5 1 3 6 6 5 5 5 4 1 3 4 9 7 1 5 4 3 1
14 7 10 12 11 5 6 4 4 8 13 18 17 15 18 22 17 8 14 17 9 15 13 14 11 10 8 7 8 4 3 4 3 3 5 6 6 5 5 2 1 8 12 12 12 2 5 5 3
4 5 9 5 13 7 12 8 6 9 14 19 18 19 20 18 21 20 6 5 11 15 14 14 12 12 9 6 3 5 7 3 2 6 8 6 5 5 5 5 4 3 12 17 3 3 5 5 2
9 3 9 11 11 12 11 4 1 11 8 19 18 18 16 18 23 18 14 13 10 7 7 15 14 12 9 8 6 5 12 10 4 6 6 5 6 5 4 6 4 4 2 4 2 4 5 4 5
11 14 2 5 5 9 9 7 8 13 15 26 30 18 19 17 17 16 10 15 13 14 21 17 16 14 11 11 9 7 6 8 5 5 5 5 5 6 8 6 5 4 4 4 2 3 5 4 1
12 15 8 3 7 6 16 5 8 19 10 11 8 11 7 15 14 15 25 21 19 19 23 18 17 15 14 11 11 9 8 4 5 5 3 2 4 6 10 8 8 5 5 4 4 4 5 2 1
9 10 10 17 19 12 12 11 12 9 13 12 9 17 19 17 13 13 12 17 18 22 17 19 20 17 15 14 9 9 9 8 8 6 5 2 4 5 11 10 6 8 4 5 4 3 5 4 4
11 12 10 8 4 1 6 5 8 7 7 7 8 17 12 14 15 10 11 12 19 19 3 18 20 19 17 15 13 10 10 10 7 4 6 6 2 9 12 4 6 6 6 5 3 4 4 3 2
9 12 11 14 4 6 5 4 11 9 3 7 18 25 24 12 10 7 7 8 12 15 15 9 18 17 15 13 15 14 10 11 10 8 6 3 3 1 6 4 10 5 5 6 5 6 3 2 6
17 12 9 7 5 6 13 8 13 11 7 12 12 14 12 8 8 6 3 3 3 8 11 17 18 5 16 13 11 14 14 13 13 9 8 7 8 6 8 13 9 3 4 5 5 6 6 6 8
Wind_Direction
234 226 230 243 189 312 245 182 116 66 51 68 70 70 70 50 48 89 70 109 122 122 130 135 127 116 105 104 111 119 115 113 105 106 104 104 102 100 104 104 111 117 128 109 107 109 108 106 103
247 268 246 275 82 303 76 77 110 131 128 91 70 77 67 81 84 93 81 65 92 110 138 132 132 124 116 110 113 112 114 110 108 109 115 107 103 95 98 104 113 144 117 112 115 112 102 104 107
256 258 271 185 96 248 91 82 77 78 83 76 98 54 71 86 70 100 103 95 73 91 90 111 133 132 126 122 120 120 118 112 108 116 115 117 106 108 108 110 117 121 118 119 115 108 107 111 114
253 250 238 255 134 233 258 94 118 75 91 109 108 77 76 84 96 97 109 134 116 139 94 107 111 116 122 127 113 115 120 123 119 124 126 113 116 119 103 111 122 121 123 116 114 106 119 138 160
259 261 289 346 131 253 133 89 111 124 101 87 93 94 88 103 114 115 85 57 98 100 108 95 98 97 107 116 108 86 117 112 103 113 115 112 116 84 76 114 121 121 122 119 120 110 97 166 169
47 319 302 92 302 324 59 52 120 88 102 109 102 102 100 119 114 117 117 108 120 106 106 98 91 84 91 102 104 88 82 103 91 110 112 109 88 99 130 137 134 129 128 132 123 102 85 146 152
126 200 276 151 133 262 62 19 54 109 115 123 118 117 131 116 119 126 131 102 90 98 100 101 100 93 85 90 97 101 89 100 90 85 111 118 127 123 229 172 146 133 143 148 146 137 158 178 179
145 272 164 75 119 70 13 50 23 81 87 110 146 129 133 121 128 116 126 119 107 106 103 106 96 105 88 80 82 89 101 103 104 100 121 134 147 181 196 167 150 148 154 172 199 213 210 203 203
64 38 47 10 50 124 265 103 348 117 131 44 128 142 121 143 129 123 121 105 96 132 129 116 111 119 99 95 106 99 116 126 146 170 178 148 164 198 175 165 149 162 180 208 227 229 237 253 243
132 219 105 176 183 179 228 139 162 174 115 115 97 108 138 146 143 133 127 127 139 170 136 118 120 132 132 112 106 118 118 99 156 15 29 260 214 178 185 145 167 183 210 226 234 231 216 311 288
224 48 101 62 108 150 154 130 220 96 55 126 121 132 147 160 145 145 130 140 147 147 120 134 155 149 148 143 179 203 147 162 176 100 312 245 232 190 163 161 186 202 218 225 216 221 209 181 241
100 88 81 73 118 139 146 291 78 57 261 107 129 146 155 169 155 142 123 129 147 145 143 136 120 197 133 197 208 194 180 188 188 186 201 225 232 208 172 187 198 196 194 234 259 233 231 265 210
9 97 110 93 94 130 89 319 149 114 200 190 138 150 169 169 136 125 127 122 115 183 124 140 153 177 163 176 201 208 198 208 183 170 173 198 188 253 198 190 212 209 199 132 232 214 278 286 38
184 117 111 108 122 151 142 21 339 97 273 165 149 158 170 152 139 130 126 134 125 171 132 118 138 142 122 175 187 173 217 224 191 129 84 324 166 205 177 231 218 42 333 296 53 18 263 295 80
124 132 124 138 155 127 153 111 74 313 292 162 155 167 140 118 138 135 140 137 144 159 124 148 132 141 167 165 138 192 233 198 134 100 109 352 351 318 237 244 301 134 233 86 99 280 324 106 134
151 105 167 156 152 145 206 216 172 237 331 308 162 150 142 144 151 154 133 155 131 133 134 170 155 148 155 180 83 146 241 166 105 139 140 182 320 297 287 189 294 132 193 208 212 233 315 57 214
349 325 187 140 157 154 133 273 229 241 209 281 193 172 157 179 138 140 151 145 139 161 142 200 136 119 165 149 86 136 223 155 190 147 141 164 232 264 288 342 236 17 324 286 30 358 57 356 326
260 289 258 145 187 162 140 247 224 186 147 238 262 179 168 155 146 161 161 144 137 162 147 159 128 127 129 98 244 247 176 248 150 161 109 141 226 263 292 121 60 315 303 348 110 52 342 339 36
179 223 243 161 195 138 217 216 183 188 204 203 244 288 163 167 205 162 155 155 157 151 153 139 119 128 147 181 163 184 183 201 172 98 122 143 202 233 290 319 190 284 274 35 10 332 271 83 58
205 184 183 114 163 106 296 237 213 177 196 204 185 225 140 71 145 350 323 152 160 153 155 157 143 157 191 204 146 253 155 160 180 124 135 193 199 196 265 345 299 266 343 45 15 324 319 341 110
247 239 61 182 216 196 190 95 9 322 252 212 206 158 151 127 166 198 231 198 167 154 154 165 162 162 181 238 68 261 54 230 103 133 149 218 199 189 286 35 350 3 41 345 231 309 313 309 200
258 12 164 186 177 224 230 213 162 272 274 195 210 195 175 192 168 215 280 179 155 156 159 158 166 159 193 226 167 172 176 154 147 203 175 167 207 177 187 160 295 78 79 311 283 53 315 297 30
268 178 271 265 190 201 238 243 205 223 255 198 206 204 190 189 174 195 188 277 222 157 163 157 166 167 186 194 260 166 103 285 41 286 140 164 196 170 207 149 192 253 146 217 290 1 324 308 22
273 293 248 250 250 235 243 262 151 181 158 272 256 202 196 198 180 195 170 185 283 333 153 156 164 172 192 182 181 193 131 197 263 214 155 198 178 184 185 169 179 218 242 197 229 241 273 296 333
236 247 81 320 279 316 292 256 162 177 189 196 223 181 194 204 201 130 116 206 167 230 211 156 163 168 195 177 173 195 201 172 214 179 227 215 186 182 179 178 170 189 220 261 194 221 257 253 9
224 258 118 231 227 283 284 113 111 176 154 108 147 158 135 191 192 160 176 193 169 202 220 164 163 170 179 187 188 188 208 184 219 221 259 288 229 218 162 173 173 195 183 213 207 263 243 11 238
321 235 195 203 229 207 197 102 120 130 127 129 144 159 171 208 185 200 211 168 154 172 206 166 163 172 178 180 187 187 198 205 204 205 221 171 285 257 170 177 186 147 185 240 175 240 283 151 245
278 318 283 237 283 83 66 5 114 150 128 148 98 41 174 178 173 198 183 156 156 176 114 169 166 171 177 178 182 192 201 199 237 248 215 218 152 86 272 232 158 157 171 220 230 278 256 281 287
206 236 252 275 339 222 33 269 146 124 142 135 130 120 251 148 159 176 180 192 170 168 170 152 167 176 176 187 180 186 192 195 212 217 223 173 334 337 123 23 281 213 185 197 193 267 321 314 273
248 244 239 241 267 272 174 149 107 119 167 104 97 84 69 89 120 140 119 147 260 174 138 131 254 206 172 187 179 193 184 193 196 203 214 181 167 239 222 189 209 228 243 219 194 237 261 200 240